User: anonymous   Login
Location: Asheville, NC
(35.6000°N, 82.5500°W)
Time: 08:22:02
(UTC-04:00)
Language:

EO-88 - Orbit

View from above orbital plane
View from above orbital plane
View from above satellite
View from above satellite

Ground track
Ground track

The orbit data is extracted from the following two-line orbital elements,

1 42017U 17008BX  18113.87490362  .00001730  00000-0  73813-4 0  9990
2 42017  97.4525 179.2474 0005932 196.0080 164.0971 15.24265665 65792
Epoch (UTC): 23 April 2018 20:59:51
Eccentricity: 0.0005932
inclination: 97.4525°
perigee height: 489 km
apogee height: 497 km
right ascension of ascending node: 179.2474°
argument of perigee: 196.0080°
revolutions per day: 15.24265665
mean anomaly at epoch: 164.0971°
orbit number at epoch: 6579

The dashed part of the orbit path shows where the satellite is in the earth's shadow,  

DLR